Time,TemperatureF,DewpointF,PressureIn,WindDirection,WindDirectionDegrees,WindSpeedMPH,WindSpeedGustMPH,Humidity,HourlyPrecipIn,Conditions,Clouds,dailyrainin,SoftwareType,DateUTC
2013-04-20 00:01:00,35.8,24.4,30.59,NNE,22,3.0,3.0,63,-99.99,,,0.00,meteohub,2013-04-20 06:01:00,
2013-04-20 00:06:00,36.1,24.1,30.59,ENE,68,1.0,4.0,61,-99.99,,,0.00,meteohub,2013-04-20 06:06:00,
2013-04-20 00:11:00,36.1,24.8,30.59,ENE,68,2.0,4.0,63,-99.99,,,0.00,meteohub,2013-04-20 06:11:00,
2013-04-20 00:16:00,36.1,24.4,30.59,East,90,3.0,4.0,62,-99.99,,,0.00,meteohub,2013-04-20 06:16:00,
2013-04-20 00:21:00,35.6,24.3,30.59,ESE,112,2.0,4.0,63,-99.99,,,0.00,meteohub,2013-04-20 06:21:00,
2013-04-20 00:26:00,35.6,23.9,30.59,NNW,338,2.0,4.0,62,-99.99,,,0.00,meteohub,2013-04-20 06:26:00,
2013-04-20 00:31:00,36.0,24.3,30.59,NNE,22,4.0,4.0,62,-99.99,,,0.00,meteohub,2013-04-20 06:31:00,
2013-04-20 00:36:00,36.3,24.3,30.59,NNW,338,2.0,6.0,61,-99.99,,,0.00,meteohub,2013-04-20 06:36:00,
2013-04-20 00:41:00,36.1,25.2,30.59,NNW,338,4.0,6.0,64,-99.99,,,0.00,meteohub,2013-04-20 06:41:00,
2013-04-20 00:46:00,36.5,24.8,30.59,NNE,22,2.0,6.0,62,-99.99,,,0.00,meteohub,2013-04-20 06:46:00,
2013-04-20 00:52:00,36.7,25.0,30.56,NNW,338,4.0,6.0,62,-99.99,,,0.00,meteohub,2013-04-20 06:52:00,
2013-04-20 00:57:00,36.7,25.3,30.56,NW,315,3.0,6.0,63,-99.99,,,0.00,meteohub,2013-04-20 06:57:00,
2013-04-20 01:02:00,36.5,25.5,30.56,NNW,338,4.0,6.0,64,-99.99,,,0.00,meteohub,2013-04-20 07:02:00,
2013-04-20 01:07:00,36.9,24.6,30.56,NNW,338,4.0,6.0,61,-99.99,,,0.00,meteohub,2013-04-20 07:07:00,
2013-04-20 01:12:00,37.4,25.2,30.56,NNW,338,6.0,6.0,61,-99.99,,,0.00,meteohub,2013-04-20 07:12:00,
2013-04-20 01:17:00,37.2,25.5,30.56,NNW,338,4.0,6.0,62,-99.99,,,0.00,meteohub,2013-04-20 07:17:00,
2013-04-20 01:22:00,37.9,25.0,30.56,NNW,338,6.0,7.0,59,-99.99,,,0.00,meteohub,2013-04-20 07:22:00,
2013-04-20 01:27:00,38.1,25.2,30.56,NNW,338,6.0,9.0,59,-99.99,,,0.00,meteohub,2013-04-20 07:27:00,
2013-04-20 01:32:00,38.3,24.8,30.56,NNW,338,5.0,9.0,58,-99.99,,,0.00,meteohub,2013-04-20 07:32:00,
2013-04-20 01:37:00,38.3,24.1,30.56,NNE,22,6.0,9.0,56,-99.99,,,0.00,meteohub,2013-04-20 07:37:00,
2013-04-20 01:42:00,38.5,24.6,30.56,NNW,338,6.0,9.0,57,-99.99,,,0.00,meteohub,2013-04-20 07:42:00,
2013-04-20 01:47:00,38.7,24.4,30.56,NNW,338,5.0,9.0,56,-99.99,,,0.00,meteohub,2013-04-20 07:47:00,
2013-04-20 01:52:00,38.5,24.3,30.56,NNW,338,2.0,8.0,56,-99.99,,,0.00,meteohub,2013-04-20 07:52:00,
2013-04-20 01:57:00,37.6,24.3,30.56,NNW,338,3.0,7.0,58,-99.99,,,0.00,meteohub,2013-04-20 07:57:00,
2013-04-20 02:02:00,37.0,23.7,30.56,NNW,338,3.0,6.0,58,-99.99,,,0.00,meteohub,2013-04-20 08:02:00,
2013-04-20 02:07:00,36.5,23.9,30.53,WNW,292,2.0,5.0,60,-99.99,,,0.00,meteohub,2013-04-20 08:07:00,
2013-04-20 02:12:00,36.1,23.7,30.53,ESE,112,0.0,4.0,60,-99.99,,,0.00,meteohub,2013-04-20 08:12:00,
2013-04-20 02:17:00,35.8,23.7,30.53,ESE,112,0.0,4.0,61,-99.99,,,0.00,meteohub,2013-04-20 08:17:00,
2013-04-20 02:22:00,35.6,23.5,30.53,NNE,22,2.0,3.0,61,-99.99,,,0.00,meteohub,2013-04-20 08:22:00,
2013-04-20 02:27:00,35.2,23.2,30.53,NNE,22,1.0,2.0,61,-99.99,,,0.00,meteohub,2013-04-20 08:27:00,
2013-04-20 02:32:00,35.2,23.5,30.53,NNE,22,4.0,4.0,62,-99.99,,,0.00,meteohub,2013-04-20 08:32:00,
2013-04-20 02:37:00,35.2,23.9,30.53,WSW,248,0.0,4.0,63,-99.99,,,0.00,meteohub,2013-04-20 08:37:00,
2013-04-20 02:42:00,35.1,24.1,30.53,ESE,112,1.0,4.0,64,-99.99,,,0.00,meteohub,2013-04-20 08:42:00,
2013-04-20 02:47:00,34.9,23.9,30.53,ESE,112,0.0,4.0,64,-99.99,,,0.00,meteohub,2013-04-20 08:47:00,
2013-04-20 02:52:00,34.5,23.7,30.53,ESE,112,1.0,2.0,64,-99.99,,,0.00,meteohub,2013-04-20 08:52:00,
2013-04-20 02:57:00,34.5,23.7,30.53,ESE,112,0.0,2.0,64,-99.99,,,0.00,meteohub,2013-04-20 08:57:00,
2013-04-20 03:02:00,34.3,23.9,30.53,ESE,112,0.0,2.0,65,-99.99,,,0.00,meteohub,2013-04-20 09:02:00,
2013-04-20 03:07:00,34.2,23.4,30.53,ESE,112,0.0,2.0,64,-99.99,,,0.00,meteohub,2013-04-20 09:07:00,
2013-04-20 03:12:00,33.8,23.0,30.53,ESE,112,0.0,1.0,64,-99.99,,,0.00,meteohub,2013-04-20 09:12:00,
2013-04-20 03:17:00,33.4,23.4,30.53,ESE,112,2.0,0.0,66,-99.99,,,0.00,meteohub,2013-04-20 09:17:00,
2013-04-20 03:22:00,33.1,22.6,30.53,NNE,22,0.0,2.0,65,-99.99,,,0.00,meteohub,2013-04-20 09:22:00,
2013-04-20 03:27:00,33.1,22.6,30.53,ENE,68,0.0,2.0,65,-99.99,,,0.00,meteohub,2013-04-20 09:27:00,
2013-04-20 03:32:00,32.9,22.8,30.53,NNW,338,2.0,2.0,66,-99.99,,,0.00,meteohub,2013-04-20 09:32:00,
2013-04-20 03:37:00,33.1,24.1,30.53,ENE,68,1.0,2.0,69,-99.99,,,0.00,meteohub,2013-04-20 09:37:00,
2013-04-20 03:42:00,32.7,23.7,30.53,North,0,2.0,4.0,69,-99.99,,,0.00,meteohub,2013-04-20 09:42:00,
2013-04-20 03:47:00,32.2,22.8,30.53,NNE,22,1.0,4.0,68,-99.99,,,0.00,meteohub,2013-04-20 09:47:00,
2013-04-20 03:52:00,32.2,23.5,30.53,East,90,2.0,3.0,70,-99.99,,,0.00,meteohub,2013-04-20 09:52:00,
2013-04-20 03:57:00,32.2,23.2,30.53,NNW,338,3.0,3.0,69,-99.99,,,0.00,meteohub,2013-04-20 09:57:00,
2013-04-20 04:02:00,31.8,22.8,30.53,NNE,22,0.0,3.0,69,-99.99,,,0.00,meteohub,2013-04-20 10:02:00,
2013-04-20 04:07:00,31.5,23.2,30.53,NNE,22,3.0,3.0,71,-99.99,,,0.00,meteohub,2013-04-20 10:07:00,
2013-04-20 04:12:00,31.6,23.7,30.53,ENE,68,1.0,4.0,72,-99.99,,,0.00,meteohub,2013-04-20 10:12:00,
2013-04-20 04:17:00,31.8,23.9,30.53,ENE,68,1.0,4.0,72,-99.99,,,0.00,meteohub,2013-04-20 10:17:00,
2013-04-20 04:22:00,31.5,23.2,30.53,NNW,338,0.0,3.0,71,-99.99,,,0.00,meteohub,2013-04-20 10:22:00,
2013-04-20 04:27:00,31.1,22.8,30.53,ESE,112,1.0,3.0,71,-99.99,,,0.00,meteohub,2013-04-20 10:27:00,
2013-04-20 04:32:00,31.8,23.5,30.53,NNE,22,1.0,3.0,71,-99.99,,,0.00,meteohub,2013-04-20 10:32:00,
2013-04-20 04:37:00,31.3,23.4,30.53,East,90,1.0,4.0,72,-99.99,,,0.00,meteohub,2013-04-20 10:37:00,
2013-04-20 04:42:00,31.3,23.4,30.53,NNE,22,3.0,4.0,72,-99.99,,,0.00,meteohub,2013-04-20 10:42:00,
2013-04-20 04:47:00,31.3,23.7,30.53,NNW,338,2.0,4.0,73,-99.99,,,0.00,meteohub,2013-04-20 10:47:00,
2013-04-20 04:52:00,31.3,24.3,30.53,NNW,338,4.0,5.0,75,-99.99,,,0.00,meteohub,2013-04-20 10:52:00,
2013-04-20 04:57:00,31.3,24.3,30.53,NNW,338,4.0,5.0,75,-99.99,,,0.00,meteohub,2013-04-20 10:57:00,
2013-04-20 05:02:00,31.1,24.1,30.53,NNW,338,4.0,5.0,75,-99.99,,,0.00,meteohub,2013-04-20 11:02:00,
2013-04-20 05:07:00,31.3,24.6,30.53,ENE,68,1.0,5.0,76,-99.99,,,0.00,meteohub,2013-04-20 11:07:00,
2013-04-20 05:12:00,31.1,24.8,30.53,NNE,22,4.0,4.0,77,-99.99,,,0.00,meteohub,2013-04-20 11:12:00,
2013-04-20 05:17:00,31.1,24.4,30.53,ESE,112,0.0,4.0,76,-99.99,,,0.00,meteohub,2013-04-20 11:17:00,
2013-04-20 05:22:00,31.1,23.7,30.53,NNW,338,2.0,4.0,74,-99.99,,,0.00,meteohub,2013-04-20 11:22:00,
2013-04-20 05:27:00,31.5,25.2,30.53,NNE,22,2.0,4.0,77,-99.99,,,0.00,meteohub,2013-04-20 11:27:00,
2013-04-20 05:32:00,31.3,24.3,30.53,NNE,22,3.0,4.0,75,-99.99,,,0.00,meteohub,2013-04-20 11:32:00,
2013-04-20 05:37:00,31.3,24.3,30.53,NNE,22,1.0,4.0,75,-99.99,,,0.00,meteohub,2013-04-20 11:37:00,
2013-04-20 05:42:00,31.3,23.9,30.53,NNW,338,0.0,4.0,74,-99.99,,,0.00,meteohub,2013-04-20 11:42:00,
2013-04-20 05:47:00,31.1,23.7,30.53,ENE,68,0.0,4.0,74,-99.99,,,0.00,meteohub,2013-04-20 11:47:00,
2013-04-20 05:52:00,30.7,23.7,30.53,ENE,68,3.0,3.0,75,-99.99,,,0.00,meteohub,2013-04-20 11:52:00,
2013-04-20 05:57:00,31.1,24.8,30.53,NNE,22,2.0,3.0,77,-99.99,,,0.00,meteohub,2013-04-20 11:57:00,
2013-04-20 06:02:00,31.3,24.6,30.53,NNE,22,4.0,6.0,76,-99.99,,,0.00,meteohub,2013-04-20 12:02:00,
2013-04-20 06:07:00,31.5,24.8,30.53,ENE,68,2.0,6.0,76,-99.99,,,0.00,meteohub,2013-04-20 12:07:00,
2013-04-20 06:12:00,31.5,24.4,30.53,ENE,68,2.0,5.0,75,-99.99,,,0.00,meteohub,2013-04-20 12:12:00,
2013-04-20 06:17:00,31.8,24.8,30.53,ESE,112,3.0,5.0,75,-99.99,,,0.00,meteohub,2013-04-20 12:17:00,
2013-04-20 06:22:00,32.7,25.3,30.53,SSE,158,2.0,5.0,74,-99.99,,,0.00,meteohub,2013-04-20 12:22:00,
2013-04-20 06:27:00,32.4,24.4,30.53,NNE,22,2.0,5.0,72,-99.99,,,0.00,meteohub,2013-04-20 12:27:00,
2013-04-20 06:32:00,32.0,23.7,30.53,NNE,22,0.0,5.0,71,-99.99,,,0.00,meteohub,2013-04-20 12:32:00,
2013-04-20 06:37:00,31.6,23.4,30.53,NE,45,2.0,3.0,71,-99.99,,,0.00,meteohub,2013-04-20 12:37:00,
2013-04-20 06:42:00,31.6,23.4,30.53,NNE,22,3.0,3.0,71,-99.99,,,0.00,meteohub,2013-04-20 12:42:00,
2013-04-20 06:47:00,32.0,23.7,30.53,NNE,22,1.0,3.0,71,-99.99,,,0.00,meteohub,2013-04-20 12:47:00,
2013-04-20 06:52:00,32.5,23.9,30.50,NW,315,0.0,3.0,70,-99.99,,,0.00,meteohub,2013-04-20 12:52:00,
2013-04-20 06:57:00,32.2,23.2,30.50,ENE,68,2.0,3.0,69,-99.99,,,0.00,meteohub,2013-04-20 12:57:00,
2013-04-20 07:02:00,32.5,23.5,30.50,WSW,248,1.0,3.0,69,-99.99,,,0.00,meteohub,2013-04-20 13:02:00,
2013-04-20 07:07:00,32.2,22.8,30.50,ENE,68,0.0,4.0,68,-99.99,,,0.00,meteohub,2013-04-20 13:07:00,
2013-04-20 07:12:00,32.4,23.0,30.50,ESE,112,2.0,4.0,68,-99.99,,,0.00,meteohub,2013-04-20 13:12:00,
2013-04-20 07:17:00,32.9,23.9,30.50,ESE,112,2.0,4.0,69,-99.99,,,0.00,meteohub,2013-04-20 13:17:00,
2013-04-20 07:22:00,33.8,24.4,30.53,WNW,292,1.0,7.0,68,-99.99,,,0.00,meteohub,2013-04-20 13:22:00,
2013-04-20 07:27:00,33.8,24.4,30.53,NNE,22,3.0,7.0,68,-99.99,,,0.00,meteohub,2013-04-20 13:27:00,
2013-04-20 07:32:00,34.3,24.6,30.53,SSE,158,1.0,7.0,67,-99.99,,,0.00,meteohub,2013-04-20 13:32:00,
2013-04-20 07:37:00,35.4,25.5,30.53,NNW,338,2.0,6.0,67,-99.99,,,0.00,meteohub,2013-04-20 13:37:00,
2013-04-20 07:42:00,36.3,26.1,30.53,ENE,68,2.0,4.0,66,-99.99,,,0.00,meteohub,2013-04-20 13:42:00,
2013-04-20 07:47:00,38.7,27.1,30.53,SSW,202,2.0,4.0,63,-99.99,,,0.00,meteohub,2013-04-20 13:47:00,
2013-04-20 07:52:00,40.1,28.6,30.53,WSW,248,0.0,4.0,63,-99.99,,,0.00,meteohub,2013-04-20 13:52:00,
2013-04-20 07:57:00,43.5,31.5,30.53,East,90,0.0,3.0,62,-99.99,,,0.00,meteohub,2013-04-20 13:57:00,
2013-04-20 08:02:00,46.2,32.7,30.53,ENE,68,0.0,3.0,59,-99.99,,,0.00,meteohub,2013-04-20 14:02:00,
2013-04-20 08:07:00,47.3,32.4,30.53,SSE,158,1.0,2.0,56,-99.99,,,0.00,meteohub,2013-04-20 14:07:00,
2013-04-20 08:12:00,47.8,31.6,30.53,ESE,112,1.0,2.0,53,-99.99,,,0.00,meteohub,2013-04-20 14:12:00,
2013-04-20 08:17:00,48.4,31.6,30.53,ENE,68,1.0,2.0,52,-99.99,,,0.00,meteohub,2013-04-20 14:17:00,
2013-04-20 08:22:00,49.6,31.8,30.53,NNE,22,0.0,2.0,50,-99.99,,,0.00,meteohub,2013-04-20 14:22:00,
2013-04-20 08:27:00,49.8,30.9,30.53,SSW,202,2.0,2.0,48,-99.99,,,0.00,meteohub,2013-04-20 14:27:00,
2013-04-20 08:32:00,51.6,32.5,30.53,ESE,112,0.0,2.0,48,-99.99,,,0.00,meteohub,2013-04-20 14:32:00,
2013-04-20 08:37:00,50.9,30.9,30.53,NNW,338,4.0,4.0,46,-99.99,,,0.00,meteohub,2013-04-20 14:37:00,
2013-04-20 08:42:00,50.9,30.4,30.53,NNW,338,1.0,4.0,45,-99.99,,,0.00,meteohub,2013-04-20 14:42:00,
2013-04-20 08:47:00,50.4,29.8,30.53,NNE,22,2.0,4.0,45,-99.99,,,0.00,meteohub,2013-04-20 14:47:00,
2013-04-20 08:52:00,50.4,29.3,30.53,NNW,338,2.0,4.0,44,-99.99,,,0.00,meteohub,2013-04-20 14:52:00,
2013-04-20 08:57:00,50.0,28.9,30.53,NNW,338,3.0,3.0,44,-99.99,,,0.00,meteohub,2013-04-20 14:57:00,
2013-04-20 09:02:00,50.2,29.1,30.53,NNW,338,2.0,4.0,44,-99.99,,,0.00,meteohub,2013-04-20 15:02:00,
2013-04-20 09:07:00,49.8,28.2,30.56,NNW,338,3.0,4.0,43,-99.99,,,0.00,meteohub,2013-04-20 15:07:00,
2013-04-20 09:12:00,49.8,27.7,30.56,NNE,22,2.0,4.0,42,-99.99,,,0.00,meteohub,2013-04-20 15:12:00,
2013-04-20 09:17:00,51.3,29.5,30.56,NNE,22,0.0,4.0,43,-99.99,,,0.00,meteohub,2013-04-20 15:17:00,
2013-04-20 09:22:00,52.2,29.3,30.56,ESE,112,4.0,4.0,41,-99.99,,,0.00,meteohub,2013-04-20 15:22:00,
2013-04-20 09:27:00,52.5,30.2,30.56,SSE,158,3.0,4.0,42,-99.99,,,0.00,meteohub,2013-04-20 15:27:00,
2013-04-20 09:32:00,51.6,29.8,30.56,SSW,202,3.0,4.0,43,-99.99,,,0.00,meteohub,2013-04-20 15:32:00,
2013-04-20 09:37:00,50.9,29.8,30.56,SSW,202,3.0,5.0,44,-99.99,,,0.00,meteohub,2013-04-20 15:37:00,
2013-04-20 09:42:00,50.2,29.1,30.56,SSE,158,3.0,5.0,44,-99.99,,,0.00,meteohub,2013-04-20 15:42:00,
2013-04-20 09:47:00,50.4,29.8,30.56,South,180,3.0,5.0,45,-99.99,,,0.00,meteohub,2013-04-20 15:47:00,
2013-04-20 09:52:00,51.6,30.4,30.56,SSE,158,3.0,5.0,44,-99.99,,,0.00,meteohub,2013-04-20 15:52:00,
2013-04-20 09:57:00,51.4,30.4,30.56,SSW,202,2.0,4.0,44,-99.99,,,0.00,meteohub,2013-04-20 15:57:00,
2013-04-20 10:02:00,52.0,30.2,30.56,SSW,202,2.0,4.0,43,-99.99,,,0.00,meteohub,2013-04-20 16:02:00,
2013-04-20 10:07:00,53.6,31.1,30.59,South,180,2.0,3.0,42,-99.99,,,0.00,meteohub,2013-04-20 16:07:00,
2013-04-20 10:12:00,57.2,34.3,30.59,ESE,112,0.0,3.0,42,-99.99,,,0.00,meteohub,2013-04-20 16:12:00,
2013-04-20 10:17:00,59.4,35.1,30.59,SSW,202,1.0,3.0,40,-99.99,,,0.00,meteohub,2013-04-20 16:17:00,
2013-04-20 10:22:00,56.7,32.0,30.59,SSW,202,3.0,3.0,39,-99.99,,,0.00,meteohub,2013-04-20 16:22:00,
2013-04-20 10:27:00,54.9,31.1,30.59,SSE,158,3.0,4.0,40,-99.99,,,0.00,meteohub,2013-04-20 16:27:00,
2013-04-20 10:32:00,55.9,32.0,30.59,South,180,3.0,4.0,40,-99.99,,,0.00,meteohub,2013-04-20 16:32:00,
2013-04-20 10:37:00,55.0,31.3,30.59,South,180,4.0,4.0,40,-99.99,,,0.00,meteohub,2013-04-20 16:37:00,
2013-04-20 10:42:00,54.0,31.5,30.59,SSW,202,2.0,4.0,42,-99.99,,,0.00,meteohub,2013-04-20 16:42:00,
2013-04-20 10:47:00,54.5,32.0,30.59,South,180,3.0,4.0,42,-99.99,,,0.00,meteohub,2013-04-20 16:47:00,
2013-04-20 10:52:00,55.6,32.4,30.59,South,180,3.0,4.0,41,-99.99,,,0.00,meteohub,2013-04-20 16:52:00,
2013-04-20 10:57:00,56.3,32.9,30.59,SSE,158,1.0,4.0,41,-99.99,,,0.00,meteohub,2013-04-20 16:57:00,
2013-04-20 11:03:00,56.5,32.5,30.59,SSW,202,1.0,4.0,40,-99.99,,,0.00,meteohub,2013-04-20 17:03:00,
2013-04-20 11:08:00,56.8,32.9,30.59,NNE,22,1.0,3.0,40,-99.99,,,0.00,meteohub,2013-04-20 17:08:00,
2013-04-20 11:13:00,57.9,33.1,30.59,NNW,338,3.0,3.0,39,-99.99,,,0.00,meteohub,2013-04-20 17:13:00,
2013-04-20 11:18:00,59.0,33.4,30.59,NNE,22,2.0,4.0,38,-99.99,,,0.00,meteohub,2013-04-20 17:18:00,
2013-04-20 11:23:00,57.6,31.5,30.59,NNW,338,2.0,4.0,37,-99.99,,,0.00,meteohub,2013-04-20 17:23:00,
2013-04-20 11:28:00,56.7,31.5,30.59,NNW,338,6.0,6.0,38,-99.99,,,0.00,meteohub,2013-04-20 17:28:00,
2013-04-20 11:33:00,55.4,29.7,30.59,North,0,5.0,6.0,37,-99.99,,,0.00,meteohub,2013-04-20 17:33:00,
2013-04-20 11:38:00,55.2,30.7,30.59,NNW,338,4.0,6.0,39,-99.99,,,0.00,meteohub,2013-04-20 17:38:00,
2013-04-20 11:43:00,55.6,30.4,30.59,NNW,338,6.0,6.0,38,-99.99,,,0.00,meteohub,2013-04-20 17:43:00,
2013-04-20 11:48:00,55.9,30.7,30.59,NNW,338,4.0,6.0,38,-99.99,,,0.00,meteohub,2013-04-20 17:48:00,
2013-04-20 11:53:00,56.3,31.1,30.59,NNW,338,5.0,6.0,38,-99.99,,,0.00,meteohub,2013-04-20 17:53:00,
2013-04-20 11:59:00,56.7,31.5,30.59,NNW,338,4.0,6.0,38,-99.99,,,0.00,meteohub,2013-04-20 17:59:00,
2013-04-20 12:04:00,56.7,30.7,30.59,NNW,338,6.0,6.0,37,-99.99,,,0.00,meteohub,2013-04-20 18:04:00,
2013-04-20 12:09:00,57.6,30.9,30.59,NNE,22,4.0,6.0,36,-99.99,,,0.00,meteohub,2013-04-20 18:09:00,
2013-04-20 12:14:00,58.1,32.0,30.59,NNW,338,4.0,7.0,37,-99.99,,,0.00,meteohub,2013-04-20 18:14:00,
2013-04-20 12:19:00,58.1,31.3,30.56,WSW,248,3.0,7.0,36,-99.99,,,0.00,meteohub,2013-04-20 18:19:00,
2013-04-20 12:24:00,57.6,30.2,30.56,SSW,202,4.0,7.0,35,-99.99,,,0.00,meteohub,2013-04-20 18:24:00,
2013-04-20 12:29:00,58.6,31.8,30.56,NNW,338,4.0,7.0,36,-99.99,,,0.00,meteohub,2013-04-20 18:29:00,
2013-04-20 12:34:00,59.7,32.0,30.56,SSE,158,4.0,8.0,35,-99.99,,,0.00,meteohub,2013-04-20 18:34:00,
2013-04-20 12:39:00,59.9,32.2,30.56,NNE,22,4.0,8.0,35,-99.99,,,0.00,meteohub,2013-04-20 18:39:00,
2013-04-20 12:44:00,61.3,34.2,30.56,SSW,202,0.0,5.0,36,-99.99,,,0.00,meteohub,2013-04-20 18:44:00,
2013-04-20 12:49:00,59.5,31.8,30.56,SSW,202,5.0,5.0,35,-99.99,,,0.00,meteohub,2013-04-20 18:49:00,
2013-04-20 13:33:00,56.7,30.7,30.56,South,180,6.0,6.0,37,-99.99,,,0.00,meteohub,2013-04-20 19:33:00,
2013-04-20 13:41:00,57.9,31.1,30.56,WNW,292,4.0,6.0,36,-99.99,,,0.00,meteohub,2013-04-20 19:41:00,
2013-04-20 13:47:00,59.2,32.4,30.59,NNW,338,4.0,6.0,36,-99.99,,,0.00,meteohub,2013-04-20 19:47:00,
2013-04-20 13:53:00,61.3,33.4,30.59,NNE,22,3.0,4.0,35,-99.99,,,0.00,meteohub,2013-04-20 19:53:00,
2013-04-20 13:58:00,61.3,33.4,30.59,SE,135,1.0,4.0,35,-99.99,,,0.00,meteohub,2013-04-20 19:58:00,
2013-04-20 14:03:00,60.6,33.6,30.59,ESE,112,2.0,4.0,36,-99.99,,,0.00,meteohub,2013-04-20 20:03:00,
2013-04-20 14:08:00,61.3,33.4,30.59,NNW,338,2.0,6.0,35,-99.99,,,0.00,meteohub,2013-04-20 20:08:00,
2013-04-20 14:13:00,60.8,33.1,30.59,WNW,292,3.0,6.0,35,-99.99,,,0.00,meteohub,2013-04-20 20:13:00,
2013-04-20 14:19:00,59.7,33.4,30.56,SSW,202,10.0,10.0,37,-99.99,,,0.00,meteohub,2013-04-20 20:19:00,
2013-04-20 14:24:00,59.2,32.9,30.56,East,90,4.0,10.0,37,-99.99,,,0.00,meteohub,2013-04-20 20:24:00,
2013-04-20 14:29:00,59.7,32.7,30.56,WNW,292,3.0,17.0,36,-99.99,,,0.00,meteohub,2013-04-20 20:29:00,
2013-04-20 14:34:00,59.9,32.9,30.59,WSW,248,2.0,17.0,36,-99.99,,,0.00,meteohub,2013-04-20 20:34:00,
2013-04-20 14:39:00,57.2,31.3,30.59,NNW,338,3.0,13.0,37,0.00,,,0.00,meteohub,2013-04-20 20:39:00,
2013-04-20 14:44:00,57.0,31.6,30.59,SSE,158,1.0,9.0,38,0.00,,,0.00,meteohub,2013-04-20 20:44:00,
2013-04-20 14:49:00,57.2,31.8,30.59,SSW,202,2.0,3.0,38,0.00,,,0.00,meteohub,2013-04-20 20:49:00,
2013-04-20 14:54:00,57.7,32.4,30.59,ENE,68,4.0,4.0,38,0.00,,,0.00,meteohub,2013-04-20 20:54:00,
2013-04-20 14:59:00,56.5,31.3,30.59,SSE,158,4.0,4.0,38,0.00,,,0.00,meteohub,2013-04-20 20:59:00,
2013-04-20 15:04:00,55.6,31.1,30.59,ESE,112,3.0,4.0,39,0.00,,,0.00,meteohub,2013-04-20 21:04:00,
2013-04-20 15:09:00,57.9,32.5,30.59,SSW,202,3.0,6.0,38,0.00,,,0.00,meteohub,2013-04-20 21:09:00,
2013-04-20 15:14:00,58.3,32.9,30.59,WNW,292,4.0,6.0,38,0.00,,,0.00,meteohub,2013-04-20 21:14:00,
2013-04-20 15:19:00,58.6,33.1,30.56,NNW,338,3.0,6.0,38,0.00,,,0.00,meteohub,2013-04-20 21:19:00,
2013-04-20 15:25:00,56.5,31.3,30.56,WNW,292,3.0,5.0,38,0.00,,,0.00,meteohub,2013-04-20 21:25:00,
2013-04-20 15:30:00,56.5,31.3,30.56,WNW,292,4.0,7.0,38,0.00,,,0.00,meteohub,2013-04-20 21:30:00,
2013-04-20 15:35:00,59.4,33.1,30.56,SSW,202,2.0,7.0,37,0.00,,,0.00,meteohub,2013-04-20 21:35:00,
2013-04-20 15:40:00,61.5,35.8,30.56,SSE,158,2.0,7.0,38,0.00,,,0.00,meteohub,2013-04-20 21:40:00,
2013-04-20 15:45:00,57.9,32.5,30.56,SSW,202,4.0,6.0,38,0.00,,,0.00,meteohub,2013-04-20 21:45:00,
2013-04-20 15:50:00,57.0,31.6,30.56,SSW,202,4.0,6.0,38,0.00,,,0.00,meteohub,2013-04-20 21:50:00,
2013-04-20 15:55:00,59.0,34.2,30.56,SSW,202,3.0,6.0,39,0.00,,,0.00,meteohub,2013-04-20 21:55:00,
2013-04-20 16:00:00,59.0,32.7,30.56,SSW,202,4.0,6.0,37,0.00,,,0.00,meteohub,2013-04-20 22:00:00,
2013-04-20 16:05:00,59.9,33.6,30.56,SSW,202,3.0,5.0,37,0.00,,,0.00,meteohub,2013-04-20 22:05:00,
2013-04-20 16:10:00,58.6,33.1,30.56,South,180,8.0,8.0,38,0.00,,,0.00,meteohub,2013-04-20 22:10:00,
2013-04-20 16:15:00,56.7,32.0,30.56,SSW,202,5.0,10.0,39,0.00,,,0.00,meteohub,2013-04-20 22:15:00,
2013-04-20 16:20:00,55.0,30.6,30.56,WSW,248,3.0,10.0,39,0.00,,,0.00,meteohub,2013-04-20 22:20:00,
2013-04-20 16:25:00,54.5,30.7,30.56,South,180,2.0,7.0,40,0.00,,,0.00,meteohub,2013-04-20 22:25:00,
2013-04-20 16:30:00,54.3,30.0,30.56,SSW,202,3.0,4.0,39,0.00,,,0.00,meteohub,2013-04-20 22:30:00,
2013-04-20 16:35:00,53.2,30.2,30.56,SSW,202,3.0,4.0,41,0.00,,,0.00,meteohub,2013-04-20 22:35:00,
2013-04-20 16:41:00,52.9,29.3,30.56,SSE,158,3.0,4.0,40,0.00,,,0.00,meteohub,2013-04-20 22:41:00,
2013-04-20 16:46:00,53.1,30.0,30.56,SSE,158,2.0,6.0,41,0.00,,,0.00,meteohub,2013-04-20 22:46:00,
2013-04-20 16:51:00,52.9,30.4,30.56,SSW,202,3.0,6.0,42,0.00,,,0.00,meteohub,2013-04-20 22:51:00,
2013-04-20 16:56:00,53.2,30.2,30.56,WNW,292,3.0,4.0,41,0.00,,,0.00,meteohub,2013-04-20 22:56:00,
2013-04-20 17:01:00,53.2,30.7,30.56,WSW,248,5.0,8.0,42,0.00,,,0.00,meteohub,2013-04-20 23:01:00,
2013-04-20 17:06:00,52.9,31.1,30.56,South,180,6.0,8.0,43,0.00,,,0.00,meteohub,2013-04-20 23:06:00,
2013-04-20 17:11:00,53.2,31.3,30.56,SSW,202,4.0,8.0,43,0.00,,,0.00,meteohub,2013-04-20 23:11:00,
2013-04-20 17:16:00,55.2,32.5,30.56,SSW,202,4.0,7.0,42,0.00,,,0.00,meteohub,2013-04-20 23:16:00,
2013-04-20 17:21:00,55.6,32.9,30.56,SSE,158,3.0,6.0,42,0.00,,,0.00,meteohub,2013-04-20 23:21:00,
2013-04-20 17:26:00,54.7,31.5,30.56,NW,315,0.0,6.0,41,0.00,,,0.00,meteohub,2013-04-20 23:26:00,
2013-04-20 17:31:00,53.8,30.7,30.56,SSE,158,2.0,4.0,41,0.00,,,0.00,meteohub,2013-04-20 23:31:00,
2013-04-20 17:36:00,53.1,30.6,30.56,SSE,158,3.0,5.0,42,0.00,,,0.00,meteohub,2013-04-20 23:36:00,
2013-04-20 17:41:00,52.7,30.4,30.56,SSW,202,1.0,5.0,42,0.00,,,0.00,meteohub,2013-04-20 23:41:00,
2013-04-20 17:46:00,52.5,30.2,30.56,SSW,202,0.0,5.0,42,0.00,,,0.00,meteohub,2013-04-20 23:46:00,
2013-04-20 17:51:00,52.3,30.0,30.59,WSW,248,1.0,4.0,42,0.00,,,0.00,meteohub,2013-04-20 23:51:00,
2013-04-20 17:57:00,52.2,29.8,30.59,SW,225,2.0,3.0,42,0.00,,,0.00,meteohub,2013-04-20 23:57:00,
2013-04-20 18:02:00,52.2,29.8,30.59,SW,225,0.0,2.0,42,0.00,,,0.00,meteohub,2013-04-21 00:02:00,
2013-04-20 18:07:00,52.0,29.7,30.59,WNW,292,1.0,2.0,42,0.00,,,0.00,meteohub,2013-04-21 00:07:00,
2013-04-20 18:12:00,51.8,29.5,30.59,WNW,292,0.0,2.0,42,0.00,,,0.00,meteohub,2013-04-21 00:12:00,
2013-04-20 18:17:00,52.2,29.8,30.59,NNW,338,0.0,2.0,42,0.00,,,0.00,meteohub,2013-04-21 00:17:00,
2013-04-20 18:22:00,52.5,30.2,30.59,NNW,338,0.0,2.0,42,0.00,,,0.00,meteohub,2013-04-21 00:22:00,
2013-04-20 18:27:00,53.1,30.6,30.59,NW,315,1.0,1.0,42,0.00,,,0.00,meteohub,2013-04-21 00:27:00,
2013-04-20 18:32:00,54.1,31.6,30.59,WNW,292,0.0,2.0,42,0.00,,,0.00,meteohub,2013-04-21 00:32:00,
2013-04-20 18:37:00,53.6,31.1,30.59,East,90,3.0,3.0,42,0.00,,,0.00,meteohub,2013-04-21 00:37:00,
2013-04-20 18:42:00,52.5,30.7,30.59,SSE,158,3.0,3.0,43,0.00,,,0.00,meteohub,2013-04-21 00:42:00,
2013-04-20 18:47:00,52.0,30.2,30.59,ESE,112,2.0,4.0,43,0.00,,,0.00,meteohub,2013-04-21 00:47:00,
2013-04-20 18:53:00,51.1,29.5,30.59,ESE,112,1.0,4.0,43,0.00,,,0.00,meteohub,2013-04-21 00:53:00,
2013-04-20 18:58:00,50.4,29.3,30.59,East,90,2.0,4.0,44,0.00,,,0.00,meteohub,2013-04-21 00:58:00,
2013-04-20 19:03:00,50.2,29.1,30.59,ESE,112,1.0,3.0,44,0.00,,,0.00,meteohub,2013-04-21 01:03:00,
2013-04-20 19:08:00,49.6,28.6,30.59,ESE,112,0.0,2.0,44,0.00,,,0.00,meteohub,2013-04-21 01:08:00,
2013-04-20 19:13:00,49.6,29.1,30.59,ESE,112,0.0,2.0,45,0.00,,,0.00,meteohub,2013-04-21 01:13:00,
2013-04-20 19:18:00,49.3,28.9,30.59,ESE,112,0.0,2.0,45,0.00,,,0.00,meteohub,2013-04-21 01:18:00,
2013-04-20 19:23:00,48.7,29.5,30.59,North,0,0.0,2.0,47,0.00,,,0.00,meteohub,2013-04-21 01:23:00,
2013-04-20 19:28:00,48.6,29.8,30.59,NNE,22,1.0,2.0,48,0.00,,,0.00,meteohub,2013-04-21 01:28:00,
2013-04-20 19:33:00,48.0,29.8,30.59,SSW,202,4.0,4.0,49,0.00,,,0.00,meteohub,2013-04-21 01:33:00,
2013-04-20 19:38:00,47.8,29.7,30.59,ESE,112,0.0,2.0,49,0.00,,,0.00,meteohub,2013-04-21 01:38:00,
2013-04-20 19:43:00,47.5,29.3,30.59,ESE,112,1.0,4.0,49,0.00,,,0.00,meteohub,2013-04-21 01:43:00,
2013-04-20 19:49:00,46.4,28.8,30.59,NNW,338,0.0,4.0,50,0.00,,,0.00,meteohub,2013-04-21 01:49:00,
2013-04-20 19:54:00,45.5,28.0,30.59,NNE,22,0.0,3.0,50,0.00,,,0.00,meteohub,2013-04-21 01:54:00,
2013-04-20 19:59:00,45.1,28.0,30.59,ESE,112,1.0,2.0,51,0.00,,,0.00,meteohub,2013-04-21 01:59:00,
2013-04-20 20:04:00,44.8,28.8,30.59,East,90,0.0,2.0,53,0.00,,,0.00,meteohub,2013-04-21 02:04:00,
2013-04-20 20:09:00,44.4,28.4,30.59,NNW,338,2.0,2.0,53,0.00,,,0.00,meteohub,2013-04-21 02:09:00,
2013-04-20 20:14:00,43.5,28.4,30.59,NNE,22,2.0,2.0,55,0.00,,,0.00,meteohub,2013-04-21 02:14:00,
2013-04-20 20:19:00,43.3,28.8,30.59,NNE,22,2.0,2.0,56,0.00,,,0.00,meteohub,2013-04-21 02:19:00,
2013-04-20 20:24:00,43.3,28.8,30.59,NNE,22,2.0,2.0,56,0.00,,,0.00,meteohub,2013-04-21 02:24:00,
2013-04-20 20:29:00,43.3,28.8,30.59,ENE,68,2.0,3.0,56,0.00,,,0.00,meteohub,2013-04-21 02:29:00,
2013-04-20 20:34:00,42.8,28.6,30.62,NNW,338,2.0,3.0,57,0.00,,,0.00,meteohub,2013-04-21 02:34:00,
2013-04-20 20:39:00,41.7,28.4,30.62,NNE,22,2.0,2.0,59,0.00,,,0.00,meteohub,2013-04-21 02:39:00,
2013-04-20 20:45:00,41.4,28.2,30.62,NNE,22,0.0,2.0,59,0.00,,,0.00,meteohub,2013-04-21 02:45:00,
2013-04-20 20:50:00,41.0,28.2,30.62,NNE,22,0.0,2.0,60,0.00,,,0.00,meteohub,2013-04-21 02:50:00,
2013-04-20 20:55:00,40.6,28.2,30.62,NNE,22,2.0,2.0,61,0.00,,,0.00,meteohub,2013-04-21 02:55:00,
2013-04-20 21:00:00,40.5,28.6,30.62,NNE,22,0.0,2.0,62,0.00,,,0.00,meteohub,2013-04-21 03:00:00,
2013-04-20 21:05:00,40.3,28.4,30.62,NNE,22,0.0,2.0,62,0.00,,,0.00,meteohub,2013-04-21 03:05:00,
2013-04-20 21:10:00,40.3,28.8,30.62,NNW,338,0.0,2.0,63,0.00,,,0.00,meteohub,2013-04-21 03:10:00,
2013-04-20 21:15:00,39.7,28.2,30.62,NNE,22,0.0,2.0,63,0.00,,,0.00,meteohub,2013-04-21 03:15:00,
2013-04-20 21:20:00,39.7,28.6,30.62,NNE,22,0.0,2.0,64,0.00,,,0.00,meteohub,2013-04-21 03:20:00,
2013-04-20 21:25:00,39.7,28.6,30.62,ENE,68,0.0,2.0,64,0.00,,,0.00,meteohub,2013-04-21 03:25:00,
2013-04-20 21:30:00,39.6,28.8,30.62,NNW,338,2.0,0.0,65,-99.99,,,0.00,meteohub,2013-04-21 03:30:00,
2013-04-20 21:35:00,39.4,28.9,30.62,NNE,22,2.0,2.0,66,-99.99,,,0.00,meteohub,2013-04-21 03:35:00,
2013-04-20 21:40:00,39.4,29.3,30.62,NNE,22,2.0,3.0,67,-99.99,,,0.00,meteohub,2013-04-21 03:40:00,
2013-04-20 21:45:00,39.7,29.7,30.62,NNE,22,0.0,3.0,67,-99.99,,,0.00,meteohub,2013-04-21 03:45:00,
2013-04-20 21:50:00,40.3,29.8,30.62,NNE,22,1.0,2.0,66,-99.99,,,0.00,meteohub,2013-04-21 03:50:00,
2013-04-20 21:55:00,40.5,30.4,30.62,NNE,22,1.0,2.0,67,-99.99,,,0.00,meteohub,2013-04-21 03:55:00,
2013-04-20 22:45:00,40.6,33.6,30.65,NE,45,2.0,0.0,76,-99.99,,,0.00,meteohub,2013-04-21 04:45:00,
2013-04-20 22:46:00,40.6,33.6,30.65,WNW,292,2.0,4.0,76,-99.99,,,0.00,meteohub,2013-04-21 04:46:00,
2013-04-20 22:47:00,40.6,33.6,30.65,WNW,292,2.0,4.0,76,-99.99,,,0.00,meteohub,2013-04-21 04:47:00,
2013-04-20 22:58:00,40.6,34.0,30.65,NNW,338,4.0,4.0,77,-99.99,,,0.00,meteohub,2013-04-21 04:58:00,
2013-04-20 23:03:00,40.6,33.4,30.62,WNW,292,0.0,4.0,75,-99.99,,,0.00,meteohub,2013-04-21 05:03:00,
2013-04-20 23:08:00,40.5,32.5,30.62,NNW,338,3.0,4.0,73,-99.99,,,0.00,meteohub,2013-04-21 05:08:00,
2013-04-20 23:13:00,40.6,33.1,30.62,NNW,338,4.0,4.0,74,-99.99,,,0.00,meteohub,2013-04-21 05:13:00,
2013-04-20 23:18:00,40.5,32.9,30.62,NNW,338,4.0,4.0,74,-99.99,,,0.00,meteohub,2013-04-21 05:18:00,
2013-04-20 23:23:00,40.5,32.9,30.62,NNW,338,2.0,5.0,74,-99.99,,,0.00,meteohub,2013-04-21 05:23:00,
2013-04-20 23:28:00,39.0,31.8,30.62,NNE,22,2.0,5.0,75,-99.99,,,0.00,meteohub,2013-04-21 05:28:00,
2013-04-20 23:33:00,39.6,32.9,30.62,WNW,292,2.0,4.0,77,-99.99,,,0.00,meteohub,2013-04-21 05:33:00,
2013-04-20 23:38:00,38.5,31.3,30.62,NNW,338,0.0,4.0,75,-99.99,,,0.00,meteohub,2013-04-21 05:38:00,
2013-04-20 23:44:00,37.6,30.4,30.62,NNW,338,2.0,4.0,75,-99.99,,,0.00,meteohub,2013-04-21 05:44:00,
2013-04-20 23:49:00,37.2,30.7,30.62,NNW,338,2.0,3.0,77,-99.99,,,0.00,meteohub,2013-04-21 05:49:00,
2013-04-20 23:54:00,37.0,30.6,30.62,WNW,292,1.0,3.0,77,-99.99,,,0.00,meteohub,2013-04-21 05:54:00,
2013-04-20 23:59:00,36.3,29.8,30.62,NNW,338,3.0,3.0,77,-99.99,,,0.00,meteohub,2013-04-21 05:59:00,